Location: Ailly
(50.0793°N, 1.9944°E)
Time: 22:40:12
(UTC+00:00)

Cosmos 1269 Rocket - Pass Details

Date: 15 January 2026
Orbit: 769 x 775 km, 74.1° (Epoch: 16 February)

Event Time Altitude Azimuth Distance (km) Brightness Sun altitude
Rises 06:15:55 0° 208° (SSW) 3,239 7.1 -13.8°
Reaches altitude 10° 06:18:18 10° 210° (SSW) 2,317 6.4 -13.4°
Maximum altitude 06:23:33 73° 295° (WNW) 816 3.9 -12.6°
Drops below altitude 10° 06:28:52 10° 21° (NNE) 2,334 6.5 -11.8°
Sets 06:31:16 0° 23° (NNE) 3,266 7.3 -11.4°
